Weather History for Grand Canyon, AZ

Change the Weather History Date:

Sunday, October 14, 2012

  Actual Average Record
Temperature  
Mean Temperature 49 °F -  
Max Temperature 66 °F 63 °F 78 °F (2011)
Min Temperature 32 °F 28 °F 16 °F (2008)
Degree Days  
Heating Degree Days 16    
Moisture  
Dew Point 35 °F    
Average Humidity 62    
Maximum Humidity 92    
Minimum Humidity 34    
Precipitation  
Precipitation 0.00 in - - ()
Sea Level Pressure  
Sea Level Pressure 30.22 in    
Wind  
Wind Speed 6 mph (ENE)    
Max Wind Speed 17 mph    
Max Gust Speed 24 mph    
Visibility 10 miles    
Events      
Averages and records for this station are not official NWS values.
T = Trace of Precipitation, MM = Missing Value Source: NWS Daily Summary

Daily Weather History Graph

Daily Weather History Graph

Search for Another Location

Airport:

Trip Planner

Search our weather history database for the weather conditions in past years. The results will help you decide how hot, cold, wet, or windy it might be!

Date:

Astronomy

Oct. 14, 2012 Rise Set
Actual Time 6:34 AM MST 5:53 PM MST
Civil Twilight 6:09 AM MST 6:19 PM MST
Nautical Twilight 5:39 AM MST 6:48 PM MST
Astronomical Twilight 5:09 AM MST 7:18 PM MST
Moon 5:38 AM MST (10/14) 5:16 PM MST (10/14)
Length of Visible Light 12h 10m
Length of Day
11h 18m
Waning Crescent, 1% of the Moon is Illuminated
Oct 14
Waning Crescent
Oct 15
New
Oct 21
First Quarter
Oct 29
Full
Nov 6
Last Quarter

Hourly Weather History & Observations

Time (MST) Temp. Windchill Dew Point Humidity Pressure Visibility Wind Dir Wind Speed Gust Speed Precip Events Conditions
12:54 AM 35.1 °F - 32.0 °F 89% 30.21 in 10.0 mi Calm Calm - N/A   Clear
1:54 AM 32.0 °F - 30.0 °F 92% 30.22 in 10.0 mi Calm Calm - N/A   Clear
2:54 AM 32.0 °F - 28.9 °F 88% 30.21 in 10.0 mi Calm Calm - N/A   Clear
3:54 AM 35.1 °F 31.0 °F 30.9 °F 85% 30.19 in 10.0 mi East 4.6 mph - N/A   Clear
4:54 AM 46.9 °F - 35.1 °F 63% 30.17 in 10.0 mi ENE 10.4 mph - N/A   Clear
5:54 AM 48.9 °F - 36.0 °F 61% 30.21 in 10.0 mi ENE 12.7 mph - N/A   Clear
6:54 AM 48.0 °F - 36.0 °F 63% 30.28 in 10.0 mi ENE 11.5 mph - N/A   Clear
7:54 AM 52.0 °F - 37.0 °F 57% 30.28 in 10.0 mi ENE 10.4 mph - N/A   Clear
8:54 AM 55.0 °F - 37.0 °F 51% 30.30 in 10.0 mi ENE 15.0 mph 24.2 mph N/A   Clear
9:54 AM 57.0 °F - 37.0 °F 47% 30.30 in 10.0 mi ENE 17.3 mph 24.2 mph N/A   Clear
10:54 AM 60.1 °F - 37.9 °F 44% 30.28 in 10.0 mi NE 16.1 mph 23.0 mph N/A   Clear
11:54 AM 61.0 °F - 37.9 °F 42% 30.26 in 10.0 mi ENE 12.7 mph 19.6 mph N/A   Clear
12:54 PM 62.1 °F - 37.9 °F 41% 30.23 in 10.0 mi East 11.5 mph 18.4 mph N/A   Clear
1:54 PM 64.9 °F - 37.9 °F 37% 30.20 in 10.0 mi East 8.1 mph - N/A   Clear
2:54 PM 66.0 °F - 37.0 °F 34% 30.20 in 10.0 mi NE 11.5 mph - N/A   Clear
3:54 PM 64.9 °F - 37.0 °F 36% 30.18 in 10.0 mi NE 9.2 mph 16.1 mph N/A   Clear
4:54 PM 63.0 °F - 36.0 °F 37% 30.14 in 10.0 mi ENE 10.4 mph - N/A   Clear
5:54 PM 57.9 °F - 36.0 °F 44% 30.14 in 10.0 mi ENE 8.1 mph - N/A   Clear
6:54 PM 46.0 °F - 35.1 °F 66% 30.21 in 10.0 mi Calm Calm - N/A   Clear
7:54 PM 41.0 °F - 34.0 °F 76% 30.21 in 10.0 mi Calm Calm - N/A   Clear
8:54 PM 39.9 °F - 34.0 °F 79% 30.20 in 10.0 mi Calm Calm - N/A   Clear
9:54 PM 39.0 °F 34.8 °F 33.1 °F 79% 30.22 in 10.0 mi NE 5.8 mph - N/A   Clear
10:54 PM 36.0 °F 32.1 °F 32.0 °F 86% 30.22 in 10.0 mi ENE 4.6 mph - N/A   Clear
11:54 PM 36.0 °F - 32.0 °F 86% 30.19 in 10.0 mi Calm Calm - N/A   Clear